This is the latest recevied weather packets stored in our database for station/object KC8JWT. If no packets are shown the sender has not sent any weather packets the latest 1 day(s).
| Time | Temp. | Humidity | Pressure | Rain* | Wind** | Luminosity | Snow |
|---|---|---|---|---|---|---|---|
| 1777967645 | 18.89° C | 68% | 1008.5 hPa | 0 mm | 2.68 m/s, 239° | 0 W/m² | - |
| 1777967343 | 18.89° C | 68% | 1008.3 hPa | 0 mm | 1.79 m/s, 207° | 0 W/m² | - |
| 1777967040 | 18.89° C | 67% | 1008 hPa | 0 mm | 1.79 m/s, 187° | 0 W/m² | - |
| 1777966737 | 18.89° C | 67% | 1008.2 hPa | 0 mm | 1.79 m/s, 170° | 0 W/m² | - |
| 1777966435 | 18.89° C | 67% | 1008.2 hPa | 0 mm | 3.13 m/s, 216° | 0 W/m² | - |
| 1777966132 | 18.89° C | 67% | 1008.2 hPa | 0 mm | 1.34 m/s, 140° | 0 W/m² | - |
| 1777965828 | 18.89° C | 67% | 1007.9 hPa | 0 mm | 1.79 m/s, 173° | 0 W/m² | - |
| 1777965524 | 18.89° C | 67% | 1008.2 hPa | 0 mm | 0.89 m/s, 150° | 0 W/m² | - |
| 1777965220 | 18.89° C | 67% | 1008 hPa | 0 mm | 1.34 m/s, 155° | 0 W/m² | - |
| 1777964919 | 18.89° C | 67% | 1008.3 hPa | 0 mm | 0.89 m/s, 184° | 0 W/m² | - |
| 1777964615 | 18.89° C | 67% | 1008.2 hPa | 0 mm | 3.13 m/s, 189° | 0 W/m² | - |
| 1777964310 | 19.44° C | 66% | 1008.1 hPa | 0 mm | 1.79 m/s, 158° | 0 W/m² | - |
| 1777964007 | 19.44° C | 66% | 1008.3 hPa | 0 mm | 1.79 m/s, 143° | 0 W/m² | - |
| 1777963704 | 19.44° C | 66% | 1008.1 hPa | 0 mm | 1.79 m/s, 190° | 0 W/m² | - |
| 1777963401 | 18.89° C | 67% | 1008.3 hPa | 0 mm | 1.79 m/s, 172° | 0 W/m² | - |
| 1777963099 | 18.89° C | 67% | 1008.2 hPa | 0 mm | 0.89 m/s, 221° | 0 W/m² | - |
| 1777962795 | 18.89° C | 66% | 1008.6 hPa | 0 mm | 0.89 m/s, 200° | 0 W/m² | - |
| 1777962492 | 18.89° C | 66% | 1008.7 hPa | 0 mm | 3.13 m/s, 139° | 0 W/m² | - |
| 1777962189 | 18.89° C | 66% | 1008.5 hPa | 0 mm | 0.89 m/s, 126° | 0 W/m² | - |
| 1777961886 | 18.89° C | 66% | 1008.4 hPa | 0 mm | 1.34 m/s, 171° | 0 W/m² | - |
| 1777961584 | 18.89° C | 66% | 1008.2 hPa | 0 mm | 0.89 m/s, 146° | 0 W/m² | - |
| 1777961281 | 18.89° C | 66% | 1008.6 hPa | 0 mm | 2.68 m/s, 201° | 0 W/m² | - |
| 1777960978 | 18.89° C | 66% | 1008.6 hPa | 0 mm | 0.45 m/s, 185° | 0 W/m² | - |
| 1777960673 | 19.44° C | 66% | 1008.5 hPa | 0 mm | 0.45 m/s, 145° | 0 W/m² | - |
| 1777960370 | 18.89° C | 67% | 1008.5 hPa | 0 mm | 1.34 m/s, 140° | 0 W/m² | - |
* Rain latest hour (hover to see other rain measurements)
** Current wind speed in m/s (hover to see current wind gust speed)